Zurück zum Katalog

ONEWEB-0688

AktivKommunikationPO
NORAD 61596·PAYLOAD·🇬🇧 United Kingdom

Gestartet Oct 20, 2024 von Vandenberg Space Force Base

Loading…

Nächste Überflüge (nächste 24 Stunden)

TLE

AktuellSource: CelesTrak SupGP

Epoche: Sep 14, 2026, 08:32 UTC

1 61596C 24188C   26257.35574488 -.00002622  00000+0 -67613-2 0  2571
2 61596  87.9200 348.1652 0002961 120.2181 349.7148 13.17652297    17

Verfolge ONEWEB-0688 in Echtzeit mit AllMySat

Download on the App Store